RYR8CG GMMX-LEPA

Flight info

Callsign RYR8CG
Flight time N/A
Altitude 38000
Route OBOGA DCT ABDOR UH400 AGOVA UM372 FES UG850 BERUM DCT GONZA DCT AMR DCT DOSEK DCT RESTU DCT ALT DCT SUMMO DCT MITOS DCT BRUNO DCT RUXET
Aircraft B738/M-SDE3FGILRWY/SB1

Departure

Time N/A
Airport Marrakesh Menara Airport (GMMX)

Arrival

Time 2026-04-30 19:15
Airport Palma de Mallorca Airport (LEPA)
Time Latitude Longitude Altitude Speed Heading
2026-04-30 17:39 32.37368 -6.39740 35723 ft 475 kts 62°
2026-04-30 17:41 32.55351 -6.18358 38013 ft 462 kts 31°
2026-04-30 17:42 32.60651 -6.13957 38052 ft 467 kts 32°
2026-04-30 17:43 32.73807 -6.02901 38066 ft 463 kts 33°
2026-04-30 17:44 32.89704 -5.89538 38067 ft 469 kts 33°
2026-04-30 17:47 33.13709 -5.69239 38061 ft 469 kts 33°
2026-04-30 17:48 33.31347 -5.54235 38089 ft 466 kts 33°
2026-04-30 17:50 33.52403 -5.36221 38106 ft 465 kts 33°
2026-04-30 17:52 33.68198 -5.22621 38112 ft 467 kts 34°
2026-04-30 17:54 33.91956 -5.02044 38103 ft 469 kts 34°
2026-04-30 17:56 34.12770 -4.83093 38097 ft 468 kts 36°
2026-04-30 17:58 34.28311 -4.68842 38086 ft 467 kts 37°
2026-04-30 18:00 34.48937 -4.49749 38092 ft 467 kts 37°
2026-04-30 18:01 34.61840 -4.37674 38098 ft 470 kts 37°
2026-04-30 18:02 34.77385 -4.23071 38083 ft 473 kts 37°
2026-04-30 18:04 34.92935 -4.08390 38085 ft 470 kts 37°
2026-04-30 18:06 35.13533 -3.88829 38078 ft 467 kts 38°
2026-04-30 18:08 35.31628 -3.71928 38070 ft 469 kts 37°
2026-04-30 18:10 35.51592 -3.51213 38069 ft 473 kts 47°
2026-04-30 18:11 35.67609 -3.30807 38058 ft 473 kts 46°
2026-04-30 18:13 35.79110 -3.16378 38058 ft 472 kts 46°
2026-04-30 18:14 35.90555 -3.01953 38046 ft 470 kts 46°
2026-04-30 18:15 36.04202 -2.84666 38052 ft 468 kts 46°
2026-04-30 18:16 36.13273 -2.73124 38054 ft 468 kts 46°
2026-04-30 18:17 36.17805 -2.67343 38053 ft 468 kts 47°
2026-04-30 18:18 36.24604 -2.58649 38051 ft 469 kts 47°
2026-04-30 18:18 36.29142 -2.52834 38056 ft 470 kts 47°
2026-04-30 18:19 36.33689 -2.46997 38052 ft 471 kts 47°
2026-04-30 18:19 36.38248 -2.41134 38048 ft 472 kts 47°
2026-04-30 18:20 36.42811 -2.35255 38050 ft 473 kts 47°
2026-04-30 18:20 36.47380 -2.29359 38049 ft 474 kts 47°
2026-04-30 18:21 36.51953 -2.23446 38043 ft 475 kts 47°
2026-04-30 18:21 36.56500 -2.17556 38052 ft 475 kts 47°
2026-04-30 18:22 36.61095 -2.11593 38047 ft 476 kts 47°
2026-04-30 18:22 36.67967 -2.02654 38049 ft 476 kts 47°
2026-04-30 18:23 36.72515 -1.96725 38046 ft 476 kts 47°
2026-04-30 18:23 36.77091 -1.90748 38025 ft 476 kts 47°
2026-04-30 18:24 36.83946 -1.81775 38048 ft 476 kts 47°
2026-04-30 18:25 36.88513 -1.75782 38046 ft 476 kts 47°
2026-04-30 18:25 36.95358 -1.66780 38044 ft 476 kts 47°
2026-04-30 18:26 37.02202 -1.57753 38045 ft 477 kts 47°
2026-04-30 18:27 37.09044 -1.48704 38032 ft 477 kts 47°
2026-04-30 18:28 37.15874 -1.39645 38042 ft 477 kts 47°
2026-04-30 18:28 37.22710 -1.30553 38044 ft 478 kts 47°
2026-04-30 18:29 37.31819 -1.18398 38041 ft 478 kts 47°
2026-04-30 18:30 37.40915 -1.06215 38048 ft 477 kts 47°
2026-04-30 18:31 37.47722 -0.97066 38054 ft 478 kts 47°
2026-04-30 18:32 37.53760 -0.88929 38043 ft 478 kts 47°
2026-04-30 18:33 37.60555 -0.79747 38053 ft 477 kts 47°
2026-04-30 18:33 37.67338 -0.70555 38045 ft 477 kts 47°
2026-04-30 18:34 37.74102 -0.61362 38062 ft 476 kts 47°
2026-04-30 18:35 37.78600 -0.55235 38044 ft 475 kts 47°
2026-04-30 18:35 37.83089 -0.49107 38042 ft 474 kts 47°
2026-04-30 18:36 37.89791 -0.39937 38044 ft 472 kts 47°
2026-04-30 18:37 37.96465 -0.30779 38053 ft 471 kts 47°
2026-04-30 18:37 38.00901 -0.24677 38045 ft 470 kts 47°
2026-04-30 18:38 38.05330 -0.18573 38044 ft 470 kts 47°
2026-04-30 18:38 38.09753 -0.12467 38044 ft 470 kts 47°
2026-04-30 18:39 38.14175 -0.06349 38050 ft 470 kts 47°
2026-04-30 18:39 38.18596 -0.00220 38038 ft 470 kts 47°
2026-04-30 18:40 38.23016 0.05919 38047 ft 471 kts 47°
2026-04-30 18:40 38.27208 0.12317 37920 ft 474 kts 59°
2026-04-30 18:40 38.28688 0.16010 37638 ft 475 kts 70°
2026-04-30 18:41 38.29871 0.19930 37396 ft 474 kts 71°
2026-04-30 18:41 38.31013 0.23860 37120 ft 473 kts 71°
2026-04-30 18:41 38.32146 0.27781 36856 ft 472 kts 71°
2026-04-30 18:41 38.33287 0.31697 36593 ft 471 kts 71°
2026-04-30 18:42 38.34435 0.35596 36336 ft 470 kts 71°
2026-04-30 18:42 38.36749 0.43368 35813 ft 468 kts 70°
2026-04-30 18:42 38.37908 0.47241 35565 ft 468 kts 70°
2026-04-30 18:45 38.49265 0.85456 32669 ft 447 kts 70°
2026-04-30 18:45 38.50352 0.89148 32296 ft 443 kts 70°
2026-04-30 18:45 38.51433 0.92819 31925 ft 440 kts 70°
2026-04-30 18:46 38.52505 0.96468 31561 ft 437 kts 70°
2026-04-30 18:46 38.53568 1.00090 31197 ft 434 kts 70°
2026-04-30 18:46 38.54621 1.03685 30839 ft 431 kts 69°
2026-04-30 18:46 38.55669 1.07263 30485 ft 429 kts 69°
2026-04-30 18:47 38.56708 1.10820 30126 ft 426 kts 69°
2026-04-30 18:47 38.57740 1.14355 29710 ft 423 kts 69°
2026-04-30 18:47 38.58762 1.17859 29308 ft 419 kts 69°
2026-04-30 18:47 38.59773 1.21330 28933 ft 415 kts 69°
2026-04-30 18:48 38.60776 1.24777 28561 ft 411 kts 69°
2026-04-30 18:48 38.61740 1.28096 28174 ft 408 kts 70°
2026-04-30 18:48 38.62724 1.31488 27803 ft 405 kts 70°
2026-04-30 18:48 38.63698 1.34850 27446 ft 402 kts 70°
2026-04-30 18:49 38.64665 1.38193 27084 ft 399 kts 70°
2026-04-30 18:49 38.65623 1.41508 26727 ft 396 kts 70°
2026-04-30 18:49 38.66575 1.44805 26369 ft 394 kts 70°
2026-04-30 18:49 38.67586 1.48051 26019 ft 391 kts 62°
2026-04-30 18:50 38.69044 1.50962 25704 ft 387 kts 51°
2026-04-30 18:50 38.70670 1.53621 25386 ft 383 kts 51°
2026-04-30 18:50 38.72356 1.56356 24670 ft 392 kts 51°
2026-04-30 18:50 38.74072 1.59141 24016 ft 400 kts 51°
2026-04-30 18:51 38.75800 1.61961 23355 ft 405 kts 52°
2026-04-30 18:51 38.77534 1.64807 22795 ft 405 kts 52°
2026-04-30 18:51 38.79249 1.67633 22495 ft 398 kts 52°
2026-04-30 18:51 38.80930 1.70412 22220 ft 391 kts 52°
2026-04-30 18:52 38.82578 1.73143 21949 ft 384 kts 52°
2026-04-30 18:52 38.84197 1.75828 21683 ft 378 kts 52°
2026-04-30 18:52 38.85791 1.78474 21385 ft 373 kts 52°
2026-04-30 18:52 38.87348 1.81063 21049 ft 370 kts 52°
2026-04-30 18:53 38.88912 1.83663 20712 ft 367 kts 51°
2026-04-30 18:53 38.90465 1.86247 20363 ft 364 kts 52°
2026-04-30 18:53 38.92028 1.88849 20024 ft 362 kts 52°
2026-04-30 18:53 38.93537 1.91364 19685 ft 359 kts 52°
2026-04-30 18:54 38.95057 1.93901 19341 ft 357 kts 52°
2026-04-30 18:54 38.96588 1.96459 19004 ft 355 kts 52°
2026-04-30 18:54 38.98069 1.98934 18680 ft 353 kts 52°
2026-04-30 18:54 38.99581 2.01463 18342 ft 352 kts 52°
2026-04-30 18:55 39.01049 2.03920 17963 ft 350 kts 52°
2026-04-30 18:55 39.03992 2.08850 17254 ft 345 kts 52°
2026-04-30 18:55 39.05449 2.11295 16923 ft 343 kts 52°
2026-04-30 18:56 39.08330 2.16132 16261 ft 338 kts 52°
2026-04-30 18:56 39.09755 2.18528 15930 ft 336 kts 52°
2026-04-30 18:56 39.11172 2.20912 15619 ft 334 kts 51°
2026-04-30 18:57 39.13981 2.25644 14974 ft 331 kts 51°
2026-04-30 18:57 39.15376 2.27995 14674 ft 329 kts 51°
2026-04-30 18:57 39.16759 2.30329 14396 ft 326 kts 51°
2026-04-30 18:58 39.19515 2.34985 13793 ft 323 kts 51°
2026-04-30 18:58 39.20870 2.37277 13455 ft 322 kts 51°
2026-04-30 18:58 39.22206 2.39537 13127 ft 320 kts 51°
2026-04-30 18:59 39.24890 2.44085 12490 ft 317 kts 51°
2026-04-30 19:00 39.28863 2.50829 11576 ft 312 kts 51°
2026-04-30 19:00 39.30172 2.53053 11363 ft 308 kts 51°
2026-04-30 19:00 39.32673 2.57310 11240 ft 288 kts 51°
2026-04-30 19:01 39.35010 2.61293 11116 ft 269 kts 51°
2026-04-30 19:01 39.36126 2.63195 10969 ft 264 kts 51°
2026-04-30 19:02 39.38341 2.66974 10458 ft 263 kts 51°
2026-04-30 19:02 39.40558 2.70758 9959 ft 265 kts 51°
2026-04-30 19:03 39.42766 2.74533 9607 ft 261 kts 51°
2026-04-30 19:03 39.44658 2.78536 9350 ft 261 kts 62°
2026-04-30 19:04 39.46313 2.82695 8875 ft 259 kts 62°
2026-04-30 19:04 39.47949 2.86813 8432 ft 256 kts 62°
2026-04-30 19:05 39.49561 2.90885 8007 ft 253 kts 62°
2026-04-30 19:05 39.51575 2.94534 7574 ft 248 kts 47°
2026-04-30 19:06 39.53835 2.97855 7047 ft 244 kts 47°
2026-04-30 19:06 39.54954 2.99505 6769 ft 242 kts 47°
2026-04-30 19:06 39.57157 3.02748 6200 ft 238 kts 47°
2026-04-30 19:07 39.59330 3.05951 5605 ft 234 kts 47°
2026-04-30 19:07 39.60411 3.07526 5327 ft 234 kts 47°
2026-04-30 19:08 39.62567 3.10627 4979 ft 227 kts 47°
2026-04-30 19:08 39.64815 3.13326 4628 ft 220 kts 20°
2026-04-30 19:08 39.66309 3.13489 4387 ft 218 kts 346°
2026-04-30 19:09 39.68212 3.10775 4115 ft 217 kts 275°
2026-04-30 19:09 39.68022 3.08840 4019 ft 219 kts 254°
2026-04-30 19:09 39.67578 3.06922 3906 ft 224 kts 252°
2026-04-30 19:10 39.66633 3.03108 3657 ft 222 kts 252°
2026-04-30 19:10 39.65648 2.99320 3403 ft 220 kts 252°
2026-04-30 19:11 39.65167 2.97452 3298 ft 214 kts 252°
2026-04-30 19:11 39.63964 2.94089 3043 ft 199 kts 240°
2026-04-30 19:11 39.63262 2.92549 2887 ft 200 kts 238°
2026-04-30 19:12 39.62539 2.91009 2650 ft 199 kts 238°
2026-04-30 19:12 39.61820 2.89488 2376 ft 196 kts 238°
2026-04-30 19:12 39.61110 2.87985 2112 ft 195 kts 238°
2026-04-30 19:13 39.59725 2.85046 1612 ft 183 kts 238°
2026-04-30 19:13 39.58476 2.82396 1112 ft 161 kts 238°
2026-04-30 19:13 39.57907 2.81189 961 ft 156 kts 238°
2026-04-30 19:14 39.57344 2.79993 741 ft 154 kts 238°
2026-04-30 19:14 39.56786 2.78808 527 ft 155 kts 238°
2026-04-30 19:14 39.56220 2.77607 325 ft 156 kts 237°
2026-04-30 19:14 39.55664 2.76422 122 ft 152 kts 238°
2026-04-30 19:15 39.55124 2.75280 37 ft 137 kts 239°
2026-04-30 19:15 39.54570 2.74074 37 ft 22 kts 255°
2026-04-30 19:15 39.54549 2.73881 37 ft 21 kts 265°
2026-04-30 19:16 39.54550 2.73763 37 ft 11 kts 276°
2026-04-30 19:16 39.54553 2.73738 37 ft 0 kts 278°
2026-04-30 19:18 39.54556 2.73729 37 ft 2 kts 297°
2026-04-30 19:19 39.54582 2.73729 37 ft 6 kts 21°
2026-04-30 19:19 39.54625 2.73784 37 ft 11 kts 56°
2026-04-30 19:19 39.54738 2.74017 37 ft 19 kts 58°
2026-04-30 19:20 39.54801 2.74121 37 ft 13 kts 24°
2026-04-30 19:20 39.54882 2.74081 36 ft 14 kts 329°
2026-04-30 19:20 39.55128 2.73888 36 ft 27 kts 328°
2026-04-30 19:21 39.55298 2.73754 37 ft 30 kts 328°
2026-04-30 19:21 39.55595 2.73520 37 ft 13 kts 328°
2026-04-30 19:22 39.55569 2.73319 37 ft 15 kts 238°
2026-04-30 19:22 39.55357 2.72986 37 ft 12 kts 158°
2026-04-30 19:23 39.55179 2.72889 37 ft 11 kts 238°
2026-04-30 19:24 39.55079 2.72777 37 ft 11 kts 147°
2026-04-30 19:24 39.55057 2.72796 37 ft 0 kts 146°